BORDANYWX Weather Reports


time (UTC)temp
F
wind
direction
speed
knots
gust
knots
rain 1hr
in
rain 24hr
in
rain mn
in
humidity
%
barometer
mb
20260506090120 72 205 9.6 12.2 0.00 0.00 0.00 49 1013.0
20260506085119 72 205 9.6 12.2 0.00 0.00 0.00 49 1013.0
20260506084119 72 205 9.6 12.2 0.00 0.00 0.00 49 1013.0
20260506083118 64 197 7.0 8.7 0.00 0.00 0.00 56 1013.0
20260506082118 64 197 7.0 8.7 0.00 0.00 0.00 56 1013.0
20260506081117 64 197 7.0 8.7 0.00 0.00 0.00 56 1013.0
20260506080117 64 197 7.0 8.7 0.00 0.00 0.00 56 1013.0
20260506073115 64 197 7.0 8.7 0.00 0.00 0.00 56 1013.0
20260506072115 64 197 7.0 8.7 0.00 0.00 0.00 56 1013.0
20260506071114 64 197 7.0 8.7 0.00 0.00 0.00 56 1013.0
20260506070112 64 197 7.0 8.7 0.00 0.00 0.00 56 1013.0
20260506062110 59 249 7.0 18.2 0.00 0.00 0.00 58 1013.0
20260506061110 59 249 7.0 18.2 0.00 0.00 0.00 58 1013.0
20260506060109 59 249 7.0 18.2 0.00 0.00 0.00 58 1013.0
20260506051103 59 249 7.0 18.2 0.00 0.00 0.00 58 1013.0
20260506045102 59 249 7.0 18.2 0.00 0.00 0.00 58 1013.0
20260506044102 59 249 7.0 18.2 0.00 0.00 0.00 58 1013.0
20260506043101 59 249 7.0 18.2 0.00 0.00 0.00 58 1012.0
20260506042100 59 249 7.0 18.2 0.00 0.00 0.00 58 1012.0
20260506041100 59 249 7.0 18.2 0.00 0.00 0.00 58 1012.0
20260506040059 59 249 7.0 18.2 0.00 0.00 0.00 58 1012.0
20260506035059 59 249 7.0 18.2 0.00 0.00 0.00 58 1012.0
20260506034058 59 249 7.0 18.2 0.00 0.00 0.00 58 1012.0
20260506033058 59 249 7.0 18.2 0.00 0.00 0.00 58 1012.0
20260506032058 59 249 7.0 18.2 0.00 0.00 0.00 58 1012.0
20260506031057 59 249 7.0 18.2 0.00 0.00 0.00 58 1012.0
20260506030057 59 249 7.0 18.2 0.00 0.00 0.00 58 1012.0
20260506025056 59 249 7.0 18.2 0.00 0.00 0.00 58 1012.0
20260506024056 59 249 7.0 18.2 0.00 0.00 0.00 58 1012.0
20260506023056 59 249 7.0 18.2 0.00 0.00 0.00 58 1012.0
20260506022055 59 249 7.0 18.2 0.00 0.00 0.00 58 1012.0
20260506021055 59 249 7.0 18.2 0.00 0.00 0.00 58 1012.0
20260506020054 59 249 7.0 18.2 0.00 0.00 0.00 58 1012.0
20260506015054 59 249 7.0 18.2 0.00 0.00 0.00 58 1012.0
20260506014053 59 249 7.0 18.2 0.00 0.00 0.00 58 1012.0
20260506013053 59 249 7.0 18.2 0.00 0.00 0.00 58 1012.0
20260506012052 59 249 7.0 18.2 0.00 0.00 0.00 58 1012.0
20260506011052 59 249 7.0 18.2 0.00 0.00 0.00 58 1012.0
20260506010051 59 249 7.0 18.2 0.00 0.00 0.00 58 1012.0
20260506005051 59 249 7.0 18.2 0.00 0.00 0.00 58 1012.0
20260506004051 59 249 7.0 18.2 0.00 0.00 0.00 58 1012.0
20260506003050 59 249 7.0 18.2 0.00 0.00 0.00 58 1012.0
20260506002050 59 249 7.0 18.2 0.00 0.00 0.00 58 1012.0
20260506001049 59 249 7.0 18.2 0.00 0.00 0.00 58 1012.0
20260506000049 59 249 7.0 18.2 0.00 0.00 0.00 58 1012.0
20260505235048 59 249 7.0 18.2 0.00 0.00 0.00 58 1012.0
20260505234048 59 249 7.8 18.2 0.00 0.00 0.00 58 1012.0
20260505233047 66 266 13.0 26.1 0.00 0.00 0.00 56 1012.0
20260505232047 66 266 13.0 26.1 0.00 0.00 0.00 56 1012.0
20260505231046 66 266 13.0 26.1 0.00 0.00 0.00 56 1012.0
20260505230046 66 266 13.0 26.1 0.00 0.00 0.00 56 1012.0
20260505225045 66 266 13.0 26.1 0.00 0.00 0.00 56 1012.0
20260505224045 66 266 13.0 26.1 0.00 0.00 0.00 56 1012.0
20260505223044 66 266 13.0 26.1 0.00 0.00 0.00 56 1012.0
20260505222044 66 266 13.0 26.1 0.00 0.00 0.00 56 1012.0
20260505221043 66 266 13.0 26.1 0.00 0.00 0.00 56 1012.0
20260505220043 66 266 13.0 26.1 0.00 0.00 0.00 56 1012.0
20260505215042 66 266 13.0 26.1 0.00 0.00 0.00 56 1012.0
20260505214042 66 266 13.0 26.1 0.00 0.00 0.00 56 1012.0
20260505213042 66 266 13.0 26.1 0.00 0.00 0.00 56 1012.0
20260505212041 66 266 13.0 26.1 0.00 0.00 0.00 56 1012.0
20260505211039 66 266 13.0 26.1 0.00 0.00 0.00 56 1012.0
20260505210037 66 266 13.0 26.1 0.00 0.00 0.00 56 1012.0
20260505205037 66 266 13.0 26.1 0.00 0.00 0.00 56 1012.0
20260505204036 66 266 13.0 26.1 0.00 0.00 0.00 56 1012.0
20260505203036 66 266 13.0 26.1 0.00 0.00 0.00 56 1012.0
20260505202035 66 266 13.0 26.1 0.00 0.00 0.00 56 1012.0
20260505201035 66 266 13.0 26.1 0.00 0.00 0.00 56 1012.0
20260505200034 66 266 13.0 26.1 0.00 0.00 0.00 56 1012.0
20260505195034 66 266 13.0 26.1 0.00 0.00 0.00 56 1012.0
20260505194033 66 266 13.0 26.1 0.00 0.00 0.00 56 1012.0
20260505193033 66 266 13.0 26.1 0.00 0.00 0.00 56 1012.0
20260505192032 66 266 13.0 26.1 0.00 0.00 0.00 56 1011.0
20260505191032 66 266 13.0 26.1 0.00 0.00 0.00 56 1012.0
20260505190031 66 266 13.0 26.1 0.00 0.00 0.00 56 1012.0
20260505185031 67 266 13.9 26.1 0.00 0.00 0.00 56 1012.0
20260505184030 67 266 13.9 26.1 0.00 0.00 0.00 56 1012.0
20260505183030 71 236 7.0 9.6 0.00 0.00 0.00 49 1012.0
20260505182029 71 236 7.0 9.6 0.00 0.00 0.00 49 1010.0
20260505181029 71 236 7.0 9.6 0.00 0.00 0.00 49 1010.0
20260505180027 71 236 7.0 9.6 0.00 0.00 0.00 49 1010.0
20260505175026 71 236 7.0 9.6 0.00 0.00 0.00 49 1010.0
20260505174026 72 236 7.0 9.6 0.00 0.00 0.00 47 1010.0
20260505173025 75 172 7.0 9.6 0.00 0.00 0.00 40 1010.0
20260505172025 75 172 7.0 9.6 0.00 0.00 0.00 40 1010.0
20260505171024 75 172 7.0 9.6 0.00 0.00 0.00 40 1010.0
20260505170024 75 172 7.0 9.6 0.00 0.00 0.00 40 1010.0
20260505165023 75 172 7.0 9.6 0.00 0.00 0.00 40 1010.0
20260505164023 75 172 7.0 9.6 0.00 0.00 0.00 40 1010.0
20260505163022 75 172 7.0 9.6 0.00 0.00 0.00 40 1011.0
20260505162022 75 172 7.0 9.6 0.00 0.00 0.00 40 1011.0
20260505161021 75 172 7.0 9.6 0.00 0.00 0.00 40 1011.0
20260505153020 75 172 7.0 9.6 0.00 0.00 0.00 40 1011.0
20260505152019 75 172 7.0 9.6 0.00 0.00 0.00 40 1011.0
20260505151019 75 172 7.0 9.6 0.00 0.00 0.00 40 1011.0
20260505125012 75 172 7.0 9.6 0.00 0.00 0.00 40 1012.0
20260505124011 75 172 7.0 9.6 0.00 0.00 0.00 40 1012.0
20260505123011 75 172 7.0 9.6 0.00 0.00 0.00 40 1013.0
20260505122010 75 172 7.0 9.6 0.00 0.00 0.00 40 1013.0
20260505121010 75 172 7.0 9.6 0.00 0.00 0.00 40 1013.0
20260505120010 75 172 7.0 9.6 0.00 0.00 0.00 40 1013.0
20260505115009 75 172 7.0 9.6 0.00 0.00 0.00 40 1013.0
20260505114008 75 172 7.0 9.6 0.00 0.00 0.00 40 1013.0
20260505113008 75 172 7.0 9.6 0.00 0.00 0.00 40 1013.0
20260505112008 75 172 7.0 9.6 0.00 0.00 0.00 40 1013.0
20260505111007 75 172 7.0 9.6 0.00 0.00 0.00 40 1013.0
20260505102005 75 172 7.0 9.6 0.00 0.00 0.00 40 1014.0
20260505101004 75 172 7.0 9.6 0.00 0.00 0.00 40 1014.0
20260505100004 75 172 7.0 9.6 0.00 0.00 0.00 40 1014.0
20260505095003 75 172 7.0 9.6 0.00 0.00 0.00 40 1014.0
20260505094003 75 172 7.0 9.6 0.00 0.00 0.00 40 1014.0
20260505093002 75 172 7.0 9.6 0.00 0.00 0.00 40 1014.0
20260505092002 75 172 7.0 9.6 0.00 0.00 0.00 40 1014.0
20260505091002 75 172 7.0 9.6 0.00 0.00 0.00 40 1014.0